Flag for USA

Past Weather in Columbus West Industrial Park, Ohio, USA — Yesterday and Last 2 Weeks

Now
75 °F

Passing clouds.


Feels Like: 74 °F
Forecast: 92 / 73 °F
Wind: 3 mph from South

Location: John Glenn Columbus International Airport

Current Time: Jul 19, 2019 at 4:14:01 am

Latest Report: Jul 19, 2019 at 2:51 am


Visibility: 10 mi

Pressure: 29.93 "Hg

Humidity: 88%

Dew Point: 71 °F

Location of Columbus West Industrial ParkLocation

Past Weather in Columbus West Industrial Park — Graph

°F

Columbus West Industrial Park Temperature Yesterday

Maximum temperature yesterday: 90 °F (at 4:51 pm)
Minimum temperature yesterday: 71 °F (at 4:51 am)
Average temperature yesterday: 80 °F

High & Low Weather Summary for the Past Weeks

 TemperatureHumidityPressure
High92 °F (Jul 15, 3:51 pm)100% (Jul 4, 5:51 am)30.11 "Hg (Jul 4, 5:51 am)
Low64 °F (Jul 9, 3:51 am)28% (Jul 13, 3:51 pm)29.76 "Hg (Jul 11, 5:51 pm)
Average78 °F71%29.96 "Hg
* Reported Jul 4 2:37 am — Jul 19 2:51 am, Columbus West Industrial Park. Weather by CustomWeather, © 2019

Note: Actual official high and low records may vary slightly from our data, if they occured in-between our weather recording intervals... More about our weather records

Advertising

Columbus West Industrial Park Weather History for the Previous 24 Hours

Scroll right to see more
 ConditionsComfort  
Time TempWeatherWind HumidityBarometerVisibility
2:51 am
Fri, Jul 19
75 °FPassing clouds.3 mph88%29.93 "Hg10 mi
1:51 am75 °FPassing clouds.3 mph88%29.93 "Hg10 mi
12:51 am75 °FPassing clouds.3 mph90%29.92 "Hg10 mi
11:51 pm
Thu, Jul 18
76 °FPassing clouds.3 mph85%29.91 "Hg10 mi
10:51 pm77 °FPassing clouds.3 mph79%29.90 "Hg10 mi
9:51 pm77 °FPassing clouds.No wind74%29.90 "Hg10 mi
8:51 pm78 °FScattered clouds.6 mph71%29.89 "Hg10 mi
7:51 pm79 °FScattered clouds.6 mph72%29.86 "Hg10 mi
6:51 pm81 °FLight rain. Broken clouds.10 mph72%29.85 "Hg10 mi
6:27 pm81 °FScattered clouds.8 mph69%29.89 "Hg10 mi
6:07 pm85 °FThunderstorms. Broken clouds.8 mph61%29.92 "Hg10 mi
5:51 pm87 °FCloudy.10 mph59%29.90 "Hg10 mi
4:51 pm90 °FMore clouds than sun.3 mph52%29.89 "Hg10 mi
3:51 pm89 °FCloudy.6 mph53%29.90 "Hg10 mi
2:51 pm89 °FBroken clouds.5 mph53%29.93 "Hg10 mi
1:51 pm88 °FBroken clouds.7 mph54%29.94 "Hg10 mi
12:51 pm86 °FScattered clouds.8 mph61%29.95 "Hg10 mi
11:51 am84 °FScattered clouds.5 mph65%29.95 "Hg10 mi
10:51 am81 °FPassing clouds.5 mph72%29.95 "Hg10 mi
9:51 am80 °FPassing clouds.5 mph74%29.96 "Hg10 mi
8:51 am77 °FPassing clouds.6 mph82%29.96 "Hg10 mi
7:51 am75 °FPassing clouds.No wind88%29.95 "Hg9 mi
6:51 am72 °FScattered clouds.No wind97%29.93 "Hg8 mi
5:51 am71 °FPassing clouds.No wind96%29.92 "Hg7 mi
4:51 am71 °FFog.No wind96%29.90 "Hg6 mi
Weather by CustomWeather, © 2019

See weather overview